QPF
0.03 0.04 0.05 0.07 0.08 0.06 0.05 0.05 0.04 0.05 0.05 0.10 0.14 0.14 0.10 0.06 0.04 0.02 0.02 0.02 0.03 0.04 0.06 0.06 0.08 0.08 0.07 0.07 0.07 0.08 0.09 0.08 0.07 0.06 0.06 0.07 0.13 0.14 0.09 0.07 0.07 0.08 0.08
0.03 0.05 0.04 0.07 0.08 0.05 0.04 0.04 0.03 0.02 0.03 0.05 0.09 0.10 0.08 0.06 0.04 0.01 0.01 0.02 0.03 0.04 0.06 0.05 0.05 0.04 0.05 0.07 0.07 0.12 0.12 0.11 0.09 0.06 0.05 0.06 0.08 0.10 0.08 0.06 0.05 0.07 0.08
0.05 0.07 0.06 0.07 0.10 0.07 0.06 0.05 0.05 0.03 0.04 0.05 0.06 0.07 0.06 0.05 0.04 0.02 0.02 0.02 0.02 0.05 0.07 0.07 0.05 0.05 0.05 0.07 0.06 0.07 0.07 0.08 0.09 0.08 0.05 0.04 0.06 0.09 0.09 0.08 0.06 0.07 0.06
0.04 0.05 0.04 0.05 0.07 0.08 0.07 0.06 0.07 0.08 0.07 0.06 0.06 0.05 0.05 0.04 0.03 0.04 0.03 0.02 0.02 0.04 0.06 0.08 0.07 0.06 0.07 0.08 0.06 0.05 0.04 0.06 0.08 0.08 0.06 0.04 0.04 0.05 0.06 0.08 0.08 0.07 0.06
0.04 0.05 0.05 0.04 0.05 0.04 0.04 0.04 0.05 0.08 0.09 0.05 0.04 0.04 0.04 0.03 0.03 0.02 0.01 0.01 0.01 0.02 0.04 0.07 0.09 0.10 0.08 0.08 0.07 0.06 0.05 0.06 0.06 0.07 0.06 0.04 0.03 0.04 0.04 0.04 0.05 0.06 0.06
0.06 0.08 0.07 0.04 0.03 0.03 0.02 0.02 0.02 0.03 0.04 0.04 0.03 0.03 0.03 0.02 0.03 0.02 0.02 0.02 0.02 0.02 0.03 0.06 0.07 0.07 0.08 0.09 0.08 0.06 0.05 0.05 0.05 0.05 0.05 0.04 0.03 0.05 0.04 0.04 0.04 0.04 0.04
0.06 0.06 0.04 0.02 0.02 0.02 0.02 0.02 0.01 0.01 0.01 0.01 0.02 0.02 0.02 0.03 0.02 0.02 0.02 0.03 0.03 0.03 0.05 0.05 0.05 0.05 0.05 0.07 0.08 0.06 0.05 0.05 0.05 0.04 0.04 0.03 0.03 0.04 0.05 0.05 0.05 0.04 0.04
0.03 0.04 0.03 0.01 0.01 0.01 0.02 0.02 0.02 0.01 0.01 0.01 0.02 0.02 0.02 0.02 0.02 0.01 0.02 0.02 0.02 0.02 0.03 0.04 0.05 0.05 0.05 0.06 0.06 0.06 0.06 0.06 0.07 0.05 0.03 0.02 0.03 0.04 0.05 0.05 0.06 0.06 0.05
0.03 0.03 0.02 0.02 0.02 0.03 0.03 0.03 0.02 0.01 0.02 0.02 0.02 0.03 0.03 0.02 0.02 0.02 0.02 0.02 0.02 0.03 0.02 0.03 0.04 0.05 0.05 0.05 0.06 0.07 0.07 0.07 0.09 0.09 0.06 0.04 0.04 0.06 0.05 0.04 0.06 0.07 0.08
0.02 0.03 0.02 0.02 0.03 0.05 0.05 0.04 0.03 0.02 0.03 0.03 0.03 0.03 0.03 0.03 0.03 0.03 0.03 0.03 0.02 0.03 0.03 0.04 0.05 0.05 0.04 0.04 0.05 0.06 0.05 0.06 0.06 0.08 0.10 0.08 0.07 0.07 0.08 0.07 0.08 0.09 0.09
0.03 0.04 0.04 0.04 0.05 0.05 0.05 0.05 0.04 0.03 0.03 0.03 0.02 0.03 0.03 0.04 0.03 0.04 0.04 0.04 0.04 0.04 0.05 0.06 0.05 0.04 0.04 0.04 0.05 0.05 0.04 0.05 0.07 0.07 0.10 0.09 0.06 0.05 0.05 0.05 0.07 0.07 0.09
0.04 0.05 0.06 0.07 0.08 0.08 0.08 0.09 0.08 0.05 0.04 0.04 0.03 0.04 0.04 0.04 0.05 0.06 0.05 0.04 0.04 0.05 0.06 0.08 0.07 0.06 0.04 0.05 0.06 0.05 0.05 0.05 0.06 0.07 0.11 0.14 0.07 0.04 0.04 0.03 0.05 0.06 0.07
0.04 0.04 0.05 0.08 0.08 0.10 0.11 0.10 0.09 0.07 0.05 0.04 0.03 0.03 0.03 0.03 0.04 0.07 0.08 0.05 0.04 0.05 0.07 0.08 0.07 0.06 0.05 0.05 0.06 0.06 0.04 0.04 0.05 0.06 0.07 0.14 0.12 0.06 0.04 0.03 0.04 0.05 0.06
0.03 0.03 0.03 0.06 0.06 0.08 0.07 0.07 0.07 0.07 0.06 0.04 0.03 0.02 0.02 0.03 0.04 0.06 0.07 0.06 0.04 0.04 0.06 0.06 0.05 0.04 0.03 0.03 0.04 0.04 0.04 0.04 0.05 0.05 0.05 0.07 0.16 0.09 0.05 0.03 0.03 0.04 0.06
0.03 0.03 0.04 0.06 0.04 0.04 0.05 0.06 0.05 0.04 0.04 0.05 0.03 0.02 0.02 0.02 0.04 0.06 0.07 0.06 0.05 0.04 0.05 0.04 0.03 0.03 0.02 0.02 0.03 0.02 0.03 0.05 0.05 0.05 0.05 0.06 0.10 0.11 0.06 0.04 0.03 0.03 0.03
0.03 0.05 0.07 0.06 0.03 0.03 0.03 0.04 0.05 0.05 0.04 0.04 0.04 0.03 0.02 0.01 0.02 0.04 0.06 0.05 0.04 0.04 0.05 0.04 0.03 0.03 0.03 0.02 0.03 0.03 0.04 0.03 0.04 0.06 0.06 0.06 0.06 0.08 0.07 0.05 0.04 0.03 0.02
0.03 0.04 0.05 0.03 0.02 0.01 0.02 0.03 0.04 0.04 0.03 0.03 0.04 0.04 0.03 0.02 0.02 0.06 0.08 0.05 0.04 0.03 0.04 0.04 0.02 0.01 0.02 0.03 0.02 0.02 0.02 0.02 0.03 0.05 0.06 0.04 0.04 0.05 0.05 0.05 0.04 0.03 0.02
0.02 0.03 0.02 0.01 0.01 0.02 0.02 0.03 0.03 0.03 0.02 0.02 0.03 0.03 0.03 0.02 0.02 0.04 0.06 0.05 0.03 0.03 0.04 0.04 0.03 0.02 0.02 0.02 0.02 0.02 0.02 0.02 0.03 0.04 0.04 0.03 0.02 0.02 0.03 0.04 0.03 0.03 0.03
0.01 0.01 0.00 0.00 0.00 0.01 0.01 0.02 0.02 0.02 0.01 0.01 0.02 0.02 0.02 0.02 0.02 0.02 0.03 0.03 0.03 0.03 0.04 0.03 0.02 0.02 0.01 0.01 0.01 0.02 0.01 0.01 0.01 0.03 0.04 0.04 0.02 0.02 0.02 0.03 0.04 0.03 0.02
0.01 0.01 0.00 0.00 0.00 0.00 0.00 0.00 0.01 0.01 0.01 0.01 0.02 0.02 0.02 0.03 0.02 0.02 0.02 0.02 0.02 0.02 0.03 0.03 0.02 0.01 0.01 0.01 0.01 0.02 0.02 0.02 0.02 0.03 0.03 0.03 0.02 0.01 0.01 0.01 0.02 0.02 0.02
0.02 0.01 0.00 0.00 0.00 0.00 0.00 0.00 0.01 0.01 0.02 0.02 0.03 0.02 0.02 0.03 0.04 0.04 0.03 0.02 0.03 0.02 0.02 0.02 0.02 0.01 0.01 0.01 0.01 0.02 0.02 0.02 0.02 0.03 0.01 0.01 0.01 0.01 0.01 0.01 0.01 0.01 0.01
0.02 0.02 0.01 0.01 0.00 0.00 0.00 0.00 0.00 0.01 0.02 0.01 0.02 0.02 0.01 0.02 0.03 0.04 0.05 0.05 0.06 0.05 0.04 0.04 0.04 0.02 0.02 0.01 0.02 0.02 0.02 0.02 0.02 0.02 0.01 0.01 0.01 0.01 0.01 0.01 0.00 0.01 0.00
0.02 0.02 0.02 0.01 0.01 0.01 0.01 0.00 0.00 0.01 0.02 0.01 0.01 0.01 0.01 0.01 0.02 0.02 0.03 0.03 0.04 0.05 0.04 0.03 0.03 0.02 0.02 0.01 0.01 0.02 0.02 0.03 0.04 0.04 0.03 0.02 0.01 0.01 0.02 0.01 0.01 0.00 0.00
0.03 0.02 0.02 0.01 0.01 0.01 0.00 0.01 0.00 0.01 0.01 0.01 0.00 0.00 0.00 0.01 0.01 0.01 0.01 0.01 0.01 0.02 0.02 0.01 0.01 0.01 0.02 0.02 0.02 0.02 0.02 0.03 0.03 0.04 0.05 0.04 0.03 0.03 0.02 0.02 0.02 0.01 0.01
0.04 0.03 0.02 0.02 0.01 0.01 0.00 0.00 0.01 0.00 0.00 0.00 0.00 0.00 0.00 0.00 0.00 0.00 0.01 0.01 0.01 0.01 0.02 0.02 0.01 0.01 0.02 0.03 0.03 0.03 0.02 0.02 0.03 0.03 0.05 0.05 0.05 0.04 0.03 0.03 0.03 0.02 0.01
0.03 0.03 0.03 0.03 0.02 0.01 0.00 0.01 0.01 0.00 0.00 0.00 0.00 0.00 0.00 0.00 0.00 0.00 0.00 0.01 0.01 0.01 0.01 0.02 0.02 0.02 0.02 0.02 0.03 0.03 0.04 0.04 0.03 0.03 0.03 0.05 0.04 0.05 0.04 0.03 0.04 0.03 0.02
MSLP
1010.78 1011.11 1011.39 1011.63 1011.86 1012.09 1012.33 1012.59 1012.87 1013.16 1013.47 1013.78 1014.09 1014.41 1014.73 1015.06 1015.37 1015.65 1015.91 1016.12 1016.29 1016.43 1016.54 1016.65 1016.78 1016.92 1017.09 1017.28 1017.48 1017.68 1017.86 1018.02 1018.16 1018.29 1018.41 1018.54 1018.68 1018.84 1019.02 1019.20 1019.38 1019.55 1019.70
1011.44 1011.75 1012.03 1012.27 1012.49 1012.71 1012.94 1013.19 1013.46 1013.76 1014.09 1014.43 1014.77 1015.12 1015.45 1015.75 1016.01 1016.23 1016.39 1016.51 1016.60 1016.68 1016.75 1016.84 1016.96 1017.11 1017.28 1017.46 1017.65 1017.82 1017.96 1018.08 1018.18 1018.27 1018.36 1018.46 1018.58 1018.73 1018.90 1019.07 1019.25 1019.43 1019.61
1011.98 1012.30 1012.60 1012.87 1013.13 1013.37 1013.61 1013.87 1014.16 1014.47 1014.82 1015.18 1015.55 1015.91 1016.23 1016.51 1016.72 1016.85 1016.93 1016.96 1016.97 1016.97 1016.99 1017.06 1017.16 1017.31 1017.48 1017.66 1017.83 1017.98 1018.09 1018.17 1018.22 1018.26 1018.31 1018.37 1018.45 1018.56 1018.70 1018.85 1019.02 1019.20 1019.38
1012.44 1012.79 1013.13 1013.45 1013.75 1014.03 1014.31 1014.59 1014.89 1015.22 1015.58 1015.96 1016.34 1016.70 1017.01 1017.25 1017.42 1017.49 1017.50 1017.45 1017.38 1017.32 1017.30 1017.34 1017.43 1017.57 1017.73 1017.90 1018.06 1018.18 1018.26 1018.30 1018.31 1018.30 1018.29 1018.30 1018.32 1018.38 1018.45 1018.56 1018.68 1018.84 1019.02
1012.85 1013.22 1013.60 1013.97 1014.32 1014.65 1014.96 1015.27 1015.58 1015.91 1016.27 1016.65 1017.03 1017.38 1017.69 1017.91 1018.05 1018.09 1018.05 1017.96 1017.85 1017.76 1017.70 1017.72 1017.79 1017.92 1018.07 1018.23 1018.36 1018.46 1018.50 1018.50 1018.47 1018.41 1018.34 1018.28 1018.23 1018.21 1018.21 1018.23 1018.30 1018.40 1018.55
1013.24 1013.60 1014.00 1014.41 1014.80 1015.16 1015.50 1015.82 1016.13 1016.46 1016.81 1017.17 1017.54 1017.89 1018.20 1018.43 1018.57 1018.61 1018.58 1018.48 1018.37 1018.27 1018.21 1018.21 1018.27 1018.38 1018.52 1018.65 1018.75 1018.81 1018.82 1018.78 1018.70 1018.59 1018.47 1018.34 1018.22 1018.10 1018.01 1017.93 1017.90 1017.92 1018.01
1013.60 1013.94 1014.33 1014.75 1015.16 1015.54 1015.89 1016.21 1016.51 1016.81 1017.14 1017.48 1017.84 1018.20 1018.52 1018.77 1018.95 1019.04 1019.05 1019.00 1018.93 1018.86 1018.82 1018.82 1018.88 1018.97 1019.07 1019.16 1019.23 1019.24 1019.21 1019.13 1019.01 1018.85 1018.68 1018.49 1018.29 1018.09 1017.89 1017.71 1017.56 1017.48 1017.47
1013.96 1014.24 1014.60 1015.00 1015.41 1015.78 1016.12 1016.42 1016.70 1016.98 1017.27 1017.59 1017.94 1018.30 1018.64 1018.95 1019.19 1019.36 1019.46 1019.50 1019.50 1019.50 1019.50 1019.53 1019.58 1019.64 1019.70 1019.75 1019.76 1019.72 1019.64 1019.52 1019.36 1019.17 1018.96 1018.72 1018.46 1018.18 1017.89 1017.60 1017.34 1017.13 1017.01
1014.30 1014.52 1014.83 1015.20 1015.57 1015.93 1016.24 1016.52 1016.76 1017.00 1017.25 1017.54 1017.87 1018.24 1018.61 1018.98 1019.31 1019.58 1019.79 1019.95 1020.06 1020.14 1020.21 1020.27 1020.32 1020.36 1020.38 1020.37 1020.31 1020.22 1020.08 1019.92 1019.73 1019.51 1019.28 1019.01 1018.71 1018.38 1018.02 1017.64 1017.28 1016.95 1016.72
1014.63 1014.79 1015.05 1015.36 1015.70 1016.02 1016.30 1016.54 1016.75 1016.94 1017.15 1017.41 1017.72 1018.08 1018.48 1018.90 1019.31 1019.70 1020.03 1020.32 1020.55 1020.74 1020.88 1020.99 1021.05 1021.07 1021.05 1020.98 1020.86 1020.70 1020.52 1020.31 1020.10 1019.87 1019.63 1019.36 1019.05 1018.69 1018.29 1017.85 1017.41 1016.99 1016.64
1014.96 1015.07 1015.27 1015.54 1015.84 1016.12 1016.36 1016.56 1016.72 1016.87 1017.03 1017.24 1017.52 1017.87 1018.29 1018.75 1019.23 1019.71 1020.16 1020.57 1020.93 1021.23 1021.46 1021.62 1021.72 1021.73 1021.68 1021.56 1021.39 1021.18 1020.94 1020.71 1020.47 1020.25 1020.01 1019.76 1019.46 1019.11 1018.70 1018.24 1017.74 1017.26 1016.81
1015.28 1015.36 1015.52 1015.75 1016.00 1016.24 1016.45 1016.61 1016.72 1016.82 1016.94 1017.10 1017.33 1017.66 1018.06 1018.54 1019.07 1019.62 1020.17 1020.69 1021.17 1021.57 1021.90 1022.14 1022.28 1022.31 1022.25 1022.11 1021.90 1021.65 1021.38 1021.13 1020.89 1020.66 1020.45 1020.22 1019.96 1019.64 1019.25 1018.80 1018.29 1017.76 1017.26
1015.59 1015.65 1015.78 1015.98 1016.19 1016.40 1016.57 1016.69 1016.76 1016.81 1016.88 1016.99 1017.17 1017.45 1017.83 1018.30 1018.85 1019.45 1020.07 1020.68 1021.26 1021.77 1022.20 1022.52 1022.73 1022.81 1022.77 1022.63 1022.42 1022.16 1021.88 1021.61 1021.37 1021.16 1020.97 1020.78 1020.56 1020.29 1019.94 1019.51 1019.02 1018.49 1017.96
1015.88 1015.93 1016.04 1016.21 1016.40 1016.57 1016.70 1016.79 1016.83 1016.84 1016.85 1016.91 1017.04 1017.27 1017.60 1018.05 1018.60 1019.22 1019.89 1020.57 1021.23 1021.84 1022.37 1022.79 1023.08 1023.24 1023.26 1023.16 1022.97 1022.72 1022.45 1022.19 1021.96 1021.77 1021.60 1021.44 1021.26 1021.04 1020.74 1020.36 1019.91 1019.41 1018.88
1016.13 1016.18 1016.29 1016.43 1016.59 1016.73 1016.84 1016.90 1016.90 1016.88 1016.86 1016.87 1016.96 1017.13 1017.42 1017.84 1018.36 1018.98 1019.67 1020.40 1021.14 1021.83 1022.46 1022.98 1023.37 1023.62 1023.72 1023.69 1023.56 1023.36 1023.12 1022.88 1022.67 1022.49 1022.34 1022.21 1022.06 1021.87 1021.62 1021.30 1020.90 1020.44 1019.94
1016.35 1016.41 1016.50 1016.62 1016.76 1016.88 1016.96 1017.00 1016.99 1016.95 1016.91 1016.89 1016.94 1017.08 1017.33 1017.71 1018.20 1018.81 1019.51 1020.27 1021.05 1021.81 1022.51 1023.13 1023.62 1023.97 1024.17 1024.23 1024.17 1024.03 1023.85 1023.65 1023.46 1023.30 1023.16 1023.04 1022.91 1022.75 1022.55 1022.27 1021.93 1021.53 1021.08
1016.54 1016.60 1016.69 1016.80 1016.91 1017.01 1017.08 1017.11 1017.10 1017.06 1017.01 1016.99 1017.03 1017.15 1017.38 1017.73 1018.20 1018.79 1019.47 1020.23 1021.03 1021.83 1022.59 1023.27 1023.85 1024.28 1024.58 1024.73 1024.76 1024.70 1024.57 1024.42 1024.26 1024.12 1024.00 1023.89 1023.77 1023.62 1023.44 1023.21 1022.91 1022.58 1022.20
1016.74 1016.80 1016.88 1016.97 1017.07 1017.16 1017.23 1017.26 1017.26 1017.24 1017.21 1017.21 1017.26 1017.38 1017.60 1017.94 1018.38 1018.95 1019.61 1020.35 1021.14 1021.94 1022.71 1023.43 1024.05 1024.55 1024.92 1025.15 1025.26 1025.28 1025.22 1025.12 1025.00 1024.88 1024.77 1024.66 1024.55 1024.41 1024.25 1024.04 1023.80 1023.52 1023.21
1016.94 1017.00 1017.08 1017.17 1017.27 1017.36 1017.43 1017.47 1017.49 1017.50 1017.51 1017.55 1017.63 1017.78 1018.01 1018.34 1018.77 1019.30 1019.93 1020.62 1021.37 1022.13 1022.88 1023.59 1024.22 1024.74 1025.15 1025.44 1025.62 1025.70 1025.70 1025.66 1025.59 1025.50 1025.40 1025.31 1025.19 1025.07 1024.91 1024.73 1024.52 1024.29 1024.05
1017.16 1017.24 1017.33 1017.42 1017.52 1017.62 1017.70 1017.76 1017.82 1017.86 1017.92 1018.00 1018.12 1018.31 1018.56 1018.90 1019.32 1019.82 1020.39 1021.03 1021.70 1022.40 1023.09 1023.74 1024.33 1024.84 1025.25 1025.57 1025.79 1025.92 1025.99 1026.00 1025.97 1025.92 1025.86 1025.77 1025.67 1025.55 1025.41 1025.25 1025.07 1024.88 1024.70
1017.41 1017.51 1017.61 1017.72 1017.84 1017.94 1018.04 1018.12 1018.21 1018.29 1018.39 1018.52 1018.69 1018.91 1019.20 1019.54 1019.95 1020.42 1020.94 1021.50 1022.09 1022.69 1023.28 1023.85 1024.38 1024.84 1025.23 1025.55 1025.79 1025.96 1026.07 1026.13 1026.15 1026.15 1026.12 1026.06 1025.98 1025.87 1025.75 1025.60 1025.44 1025.29 1025.15
1017.67 1017.80 1017.93 1018.07 1018.19 1018.31 1018.42 1018.53 1018.63 1018.74 1018.87 1019.04 1019.25 1019.51 1019.82 1020.18 1020.58 1021.02 1021.48 1021.97 1022.46 1022.96 1023.45 1023.92 1024.36 1024.76 1025.11 1025.40 1025.65 1025.84 1025.99 1026.10 1026.17 1026.21 1026.22 1026.19 1026.14 1026.06 1025.94 1025.81 1025.68 1025.55 1025.44
1017.92 1018.10 1018.27 1018.43 1018.58 1018.71 1018.82 1018.93 1019.04 1019.16 1019.32 1019.51 1019.75 1020.03 1020.36 1020.72 1021.11 1021.52 1021.94 1022.36 1022.78 1023.19 1023.58 1023.96 1024.31 1024.64 1024.94 1025.21 1025.45 1025.66 1025.83 1025.98 1026.09 1026.17 1026.22 1026.23 1026.20 1026.14 1026.05 1025.94 1025.82 1025.70 1025.60
1018.14 1018.38 1018.60 1018.79 1018.95 1019.09 1019.20 1019.30 1019.40 1019.52 1019.68 1019.87 1020.12 1020.42 1020.76 1021.12 1021.51 1021.90 1022.29 1022.66 1023.02 1023.36 1023.68 1023.98 1024.27 1024.55 1024.81 1025.05 1025.28 1025.49 1025.68 1025.85 1025.99 1026.10 1026.18 1026.22 1026.22 1026.18 1026.11 1026.01 1025.90 1025.79 1025.70
1018.34 1018.64 1018.91 1019.13 1019.31 1019.45 1019.55 1019.63 1019.71 1019.81 1019.95 1020.14 1020.39 1020.68 1021.02 1021.39 1021.78 1022.16 1022.53 1022.87 1023.20 1023.49 1023.77 1024.04 1024.28 1024.53 1024.76 1024.99 1025.20 1025.41 1025.60 1025.78 1025.93 1026.06 1026.15 1026.21 1026.23 1026.20 1026.15 1026.06 1025.96 1025.86 1025.77
1018.52 1018.88 1019.20 1019.45 1019.65 1019.78 1019.87 1019.93 1019.99 1020.07 1020.19 1020.36 1020.59 1020.88 1021.22 1021.58 1021.96 1022.34 1022.70 1023.04 1023.35 1023.63 1023.90 1024.14 1024.38 1024.60 1024.83 1025.04 1025.25 1025.44 1025.63 1025.79 1025.94 1026.06 1026.15 1026.20 1026.23 1026.22 1026.17 1026.11 1026.02 1025.92 1025.83
Thickness
5779 5778 5777 5777 5776 5776 5775 5773 5772 5771 5769 5768 5768 5767 5766 5765 5764 5764 5763 5763 5762 5761 5760 5759 5757 5756 5754 5752 5751 5750 5749 5748 5746 5745 5743 5742 5740 5738 5736 5735 5733 5732 5731
5777 5776 5775 5774 5774 5773 5772 5770 5769 5768 5766 5765 5764 5763 5762 5762 5761 5761 5761 5760 5760 5759 5758 5758 5757 5755 5753 5752 5750 5749 5748 5746 5745 5743 5742 5740 5738 5737 5735 5734 5732 5731 5729
5776 5775 5773 5772 5771 5771 5769 5768 5767 5765 5764 5762 5761 5760 5760 5759 5759 5759 5759 5759 5758 5758 5757 5756 5756 5754 5753 5751 5749 5748 5746 5745 5743 5741 5739 5738 5736 5734 5733 5732 5731 5730 5728
5775 5773 5771 5770 5769 5768 5767 5765 5763 5761 5759 5758 5757 5757 5757 5756 5756 5756 5756 5756 5756 5756 5755 5755 5754 5753 5751 5750 5748 5747 5745 5743 5741 5739 5737 5735 5734 5733 5731 5730 5729 5728 5727
5773 5772 5770 5768 5767 5766 5764 5763 5760 5758 5755 5754 5754 5753 5753 5754 5754 5754 5754 5754 5754 5754 5753 5753 5752 5751 5750 5748 5747 5745 5743 5741 5739 5737 5735 5733 5732 5730 5729 5728 5727 5726 5725
5771 5770 5768 5766 5765 5762 5760 5759 5757 5755 5753 5752 5752 5751 5751 5752 5752 5752 5752 5752 5752 5751 5751 5750 5749 5748 5747 5746 5745 5743 5741 5739 5737 5735 5733 5731 5730 5729 5727 5726 5725 5724 5723
5770 5768 5766 5764 5762 5760 5758 5756 5754 5752 5750 5750 5748 5746 5747 5749 5749 5750 5750 5750 5750 5749 5748 5747 5746 5745 5744 5743 5742 5741 5739 5737 5735 5733 5731 5729 5728 5727 5726 5725 5724 5723 5721
5768 5767 5764 5762 5760 5758 5755 5754 5752 5749 5748 5748 5745 5741 5738 5740 5744 5747 5747 5746 5747 5746 5745 5745 5744 5743 5741 5740 5739 5738 5737 5735 5733 5731 5729 5727 5726 5725 5724 5723 5722 5721 5720
5765 5764 5762 5761 5758 5756 5754 5752 5751 5748 5745 5745 5744 5740 5735 5732 5736 5740 5742 5743 5743 5742 5742 5742 5741 5740 5739 5737 5736 5735 5734 5732 5730 5728 5726 5725 5724 5723 5722 5721 5720 5719 5718
5763 5762 5760 5758 5757 5755 5753 5751 5750 5748 5745 5742 5742 5742 5740 5738 5733 5732 5736 5738 5739 5738 5738 5739 5738 5737 5736 5735 5733 5732 5731 5729 5727 5726 5724 5722 5721 5721 5720 5718 5718 5717 5716
5759 5758 5757 5756 5754 5752 5750 5749 5747 5746 5744 5741 5740 5739 5738 5737 5736 5732 5728 5731 5733 5734 5735 5734 5734 5734 5733 5732 5730 5729 5728 5726 5724 5722 5721 5720 5719 5718 5717 5716 5715 5714 5714
5755 5754 5754 5752 5751 5749 5748 5747 5745 5743 5742 5741 5739 5738 5736 5735 5733 5731 5727 5726 5726 5729 5730 5730 5729 5729 5728 5727 5727 5725 5724 5722 5720 5719 5718 5716 5715 5715 5715 5714 5713 5712 5711
5750 5750 5750 5749 5747 5746 5745 5744 5743 5742 5740 5738 5737 5735 5735 5734 5733 5730 5727 5723 5722 5723 5725 5726 5725 5725 5724 5723 5722 5721 5720 5718 5717 5715 5714 5713 5712 5711 5711 5710 5709 5708 5707
5747 5747 5746 5745 5743 5742 5742 5741 5739 5738 5737 5736 5734 5732 5731 5731 5730 5728 5725 5721 5718 5717 5718 5719 5720 5720 5719 5718 5717 5716 5715 5714 5712 5711 5710 5709 5708 5707 5706 5705 5704 5703 5701
5744 5743 5742 5740 5739 5738 5737 5736 5735 5734 5733 5731 5730 5729 5727 5727 5726 5725 5723 5722 5718 5712 5711 5714 5714 5716 5715 5714 5713 5711 5711 5709 5708 5707 5706 5704 5702 5702 5701 5700 5699 5697 5696
5740 5739 5737 5736 5734 5734 5733 5732 5730 5730 5728 5727 5726 5724 5723 5722 5721 5720 5719 5718 5717 5714 5709 5710 5710 5711 5710 5710 5708 5707 5706 5705 5704 5702 5701 5699 5697 5696 5695 5694 5693 5691 5690
5736 5734 5732 5731 5729 5728 5727 5726 5725 5724 5723 5722 5721 5720 5718 5717 5716 5715 5714 5713 5711 5709 5705 5705 5705 5705 5704 5703 5703 5702 5701 5700 5699 5697 5696 5694 5692 5690 5689 5688 5686 5685 5684
5731 5729 5727 5725 5724 5723 5722 5720 5719 5718 5717 5716 5715 5714 5712 5712 5710 5709 5708 5706 5705 5704 5702 5699 5698 5697 5697 5697 5696 5696 5695 5695 5694 5692 5691 5689 5687 5685 5683 5682 5680 5678 5677
5725 5723 5722 5720 5718 5717 5716 5715 5713 5712 5711 5709 5708 5707 5706 5705 5704 5703 5702 5700 5699 5699 5696 5694 5692 5691 5691 5690 5690 5689 5689 5688 5688 5687 5685 5684 5683 5681 5679 5677 5674 5672 5670
5720 5717 5716 5714 5712 5711 5710 5709 5707 5706 5704 5703 5702 5701 5700 5699 5697 5697 5695 5694 5692 5690 5689 5687 5685 5684 5684 5683 5682 5681 5681 5681 5681 5681 5680 5678 5677 5675 5673 5671 5669 5667 5665
5714 5712 5710 5708 5707 5706 5705 5703 5701 5699 5697 5696 5695 5694 5694 5693 5692 5691 5690 5688 5686 5684 5681 5680 5678 5678 5677 5676 5675 5675 5674 5673 5673 5673 5672 5672 5671 5669 5667 5665 5663 5661 5659
5708 5706 5704 5702 5701 5700 5699 5698 5695 5693 5691 5689 5688 5687 5687 5686 5686 5685 5683 5682 5681 5678 5675 5673 5672 5671 5671 5670 5669 5669 5667 5665 5665 5666 5665 5665 5664 5663 5661 5660 5658 5656 5654
5703 5700 5698 5696 5694 5693 5692 5691 5690 5686 5684 5682 5681 5680 5680 5679 5677 5676 5675 5674 5673 5673 5672 5669 5667 5666 5665 5665 5663 5661 5660 5659 5659 5659 5658 5659 5657 5656 5655 5654 5652 5651 5649
5696 5694 5692 5690 5688 5687 5685 5684 5682 5679 5677 5675 5673 5672 5671 5670 5669 5667 5666 5665 5664 5664 5664 5663 5662 5662 5661 5660 5658 5657 5654 5652 5652 5651 5651 5651 5651 5650 5649 5647 5646 5644 5643
5689 5687 5685 5682 5680 5679 5678 5676 5674 5671 5669 5667 5666 5664 5663 5662 5661 5659 5657 5656 5655 5656 5657 5656 5656 5655 5654 5653 5651 5648 5646 5645 5645 5645 5643 5643 5644 5642 5642 5641 5640 5638 5637
5682 5679 5677 5674 5672 5670 5669 5667 5665 5663 5660 5658 5657 5656 5655 5654 5652 5650 5649 5648 5647 5647 5647 5647 5647 5647 5646 5645 5644 5642 5641 5639 5638 5638 5638 5636 5636 5634 5635 5635 5633 5632 5630